Time,TemperatureF,DewpointF,PressureIn,WindDirection,WindDirectionDegrees,WindSpeedMPH,WindSpeedGustMPH,Humidity,HourlyPrecipIn,Conditions,Clouds,dailyrainin,SoftwareType,DateUTC
2013-03-25 00:00:00,50.8,2.2,29.95,North,0,1.8,4.0,14,0.00,,,0.00,WUHU216HW,2013-03-25 06:00:00,
2013-03-25 00:05:00,50.6,2.0,29.95,North,0,0.4,4.0,14,0.00,,,0.00,WUHU216HW,2013-03-25 06:05:00,
2013-03-25 00:10:00,50.0,0.0,29.96,North,0,2.5,5.4,13,0.00,,,0.00,WUHU216HW,2013-03-25 06:10:00,
2013-03-25 00:15:00,49.7,1.3,29.96,North,0,2.5,5.4,14,0.00,,,0.00,WUHU216HW,2013-03-25 06:15:00,
2013-03-25 00:20:00,49.3,1.0,29.96,North,0,4.0,6.0,14,0.00,,,0.00,WUHU216HW,2013-03-25 06:20:00,
2013-03-25 00:25:00,49.3,1.0,29.96,North,0,2.5,6.0,14,0.00,,,0.00,WUHU216HW,2013-03-25 06:25:00,
2013-03-25 00:30:00,49.3,-2.0,29.97,North,0,2.2,4.9,12,0.00,,,0.00,WUHU216HW,2013-03-25 06:30:00,
2013-03-25 00:35:00,49.3,-2.0,29.97,NNW,338,3.4,7.2,12,0.00,,,0.00,WUHU216HW,2013-03-25 06:35:00,
2013-03-25 00:40:00,49.3,-2.0,29.97,North,0,4.3,7.2,12,0.00,,,0.00,WUHU216HW,2013-03-25 06:40:00,
2013-03-25 00:45:00,49.3,-2.0,29.97,NNW,338,3.1,6.0,12,0.00,,,0.00,WUHU216HW,2013-03-25 06:45:00,
2013-03-25 00:50:00,49.3,-2.0,29.97,North,0,4.9,5.8,12,0.00,,,0.00,WUHU216HW,2013-03-25 06:50:00,
2013-03-25 00:55:00,49.3,-2.0,29.98,North,0,2.7,5.8,12,0.00,,,0.00,WUHU216HW,2013-03-25 06:55:00,
2013-03-25 01:00:00,49.1,-2.2,29.98,NNE,23,2.0,4.9,12,0.00,,,0.00,WUHU216HW,2013-03-25 07:00:00,
2013-03-25 01:05:00,48.8,-2.4,29.98,NE,45,2.5,3.8,12,0.00,,,0.00,WUHU216HW,2013-03-25 07:05:00,
2013-03-25 01:10:00,48.6,-1.1,29.97,NNW,338,4.7,4.7,13,0.00,,,0.00,WUHU216HW,2013-03-25 07:10:00,
2013-03-25 01:15:00,48.6,-2.5,29.98,North,0,6.3,6.5,12,0.00,,,0.00,WUHU216HW,2013-03-25 07:15:00,
2013-03-25 01:20:00,48.4,-1.2,29.97,NNW,338,4.0,6.5,13,0.00,,,0.00,WUHU216HW,2013-03-25 07:20:00,
2013-03-25 01:25:00,48.2,0.2,29.97,North,0,4.3,6.0,14,0.00,,,0.00,WUHU216HW,2013-03-25 07:25:00,
2013-03-25 01:30:00,48.2,0.2,29.98,North,0,2.0,5.4,14,0.00,,,0.00,WUHU216HW,2013-03-25 07:30:00,
2013-03-25 01:35:00,48.1,0.0,29.98,North,0,1.8,5.4,14,0.00,,,0.00,WUHU216HW,2013-03-25 07:35:00,
2013-03-25 01:40:00,47.9,-0.2,29.98,NNE,23,2.0,4.9,14,0.00,,,0.00,WUHU216HW,2013-03-25 07:40:00,
2013-03-25 01:45:00,47.5,-0.4,29.98,North,0,1.8,4.0,14,0.00,,,0.00,WUHU216HW,2013-03-25 07:45:00,
2013-03-25 01:50:00,47.0,-0.9,29.98,North,0,1.1,3.4,14,0.00,,,0.00,WUHU216HW,2013-03-25 07:50:00,
2013-03-25 01:55:00,46.4,0.2,29.99,North,0,1.8,3.4,15,0.00,,,0.00,WUHU216HW,2013-03-25 07:55:00,
2013-03-25 02:00:00,45.7,-0.3,29.99,NNE,23,1.8,3.8,15,0.00,,,0.00,WUHU216HW,2013-03-25 08:00:00,
2013-03-25 02:05:00,45.4,-0.7,29.99,NNE,23,1.8,4.0,15,0.00,,,0.00,WUHU216HW,2013-03-25 08:05:00,
2013-03-25 02:10:00,45.0,-1.0,29.99,NNE,23,2.0,4.5,15,0.00,,,0.00,WUHU216HW,2013-03-25 08:10:00,
2013-03-25 02:15:00,45.0,-1.0,29.99,North,0,1.1,4.5,15,0.00,,,0.00,WUHU216HW,2013-03-25 08:15:00,
2013-03-25 02:20:00,44.8,-1.1,30.00,NNE,23,1.3,4.5,15,0.00,,,0.00,WUHU216HW,2013-03-25 08:20:00,
2013-03-25 02:25:00,44.6,0.2,30.00,NNE,23,2.2,3.6,16,0.00,,,0.00,WUHU216HW,2013-03-25 08:25:00,
2013-03-25 02:30:00,44.5,0.1,30.00,North,0,4.0,4.9,16,0.00,,,0.00,WUHU216HW,2013-03-25 08:30:00,
2013-03-25 02:35:00,44.5,0.1,30.00,North,0,2.0,4.9,16,0.00,,,0.00,WUHU216HW,2013-03-25 08:35:00,
2013-03-25 02:40:00,44.3,-0.1,30.00,North,0,1.3,4.0,16,0.00,,,0.00,WUHU216HW,2013-03-25 08:40:00,
2013-03-25 02:45:00,44.3,-0.1,30.01,NNE,23,1.8,2.9,16,0.00,,,0.00,WUHU216HW,2013-03-25 08:45:00,
2013-03-25 02:50:00,44.1,-0.3,30.01,North,0,2.2,3.1,16,0.00,,,0.00,WUHU216HW,2013-03-25 08:50:00,
2013-03-25 02:55:00,43.9,1.1,30.01,NNW,338,1.1,3.1,17,0.00,,,0.00,WUHU216HW,2013-03-25 08:55:00,
2013-03-25 03:00:00,44.1,1.3,30.01,North,0,0.7,3.1,17,0.00,,,0.00,WUHU216HW,2013-03-25 09:00:00,
2013-03-25 03:05:00,43.9,1.1,30.01,North,0,1.1,3.4,17,0.00,,,0.00,WUHU216HW,2013-03-25 09:05:00,
2013-03-25 03:10:00,43.7,0.9,30.00,North,0,1.8,3.4,17,0.00,,,0.00,WUHU216HW,2013-03-25 09:10:00,
2013-03-25 03:15:00,43.6,0.7,30.01,NNW,338,1.8,2.5,17,0.00,,,0.00,WUHU216HW,2013-03-25 09:15:00,
2013-03-25 03:20:00,43.6,0.7,30.01,North,0,0.9,3.1,17,0.00,,,0.00,WUHU216HW,2013-03-25 09:20:00,
2013-03-25 03:25:00,43.6,0.7,30.01,North,0,1.8,3.6,17,0.00,,,0.00,WUHU216HW,2013-03-25 09:25:00,
2013-03-25 03:30:00,43.4,2.1,30.01,North,0,4.3,5.1,18,0.00,,,0.00,WUHU216HW,2013-03-25 09:30:00,
2013-03-25 03:35:00,43.0,1.7,30.02,North,0,1.8,5.1,18,0.00,,,0.00,WUHU216HW,2013-03-25 09:35:00,
2013-03-25 03:40:00,42.7,1.4,30.02,NNW,338,2.5,4.9,18,0.00,,,0.00,WUHU216HW,2013-03-25 09:40:00,
2013-03-25 03:45:00,42.3,4.1,30.02,North,0,3.4,4.9,20,0.00,,,0.00,WUHU216HW,2013-03-25 09:45:00,
2013-03-25 03:50:00,42.1,4.0,30.02,North,0,4.0,5.1,20,0.00,,,0.00,WUHU216HW,2013-03-25 09:50:00,
2013-03-25 03:55:00,41.8,3.6,30.03,NNW,338,4.0,5.1,20,0.00,,,0.00,WUHU216HW,2013-03-25 09:55:00,
2013-03-25 04:00:00,41.8,3.6,30.03,North,0,3.1,5.4,20,0.00,,,0.00,WUHU216HW,2013-03-25 10:00:00,
2013-03-25 04:05:00,41.6,4.4,30.03,North,0,2.0,6.5,21,0.00,,,0.00,WUHU216HW,2013-03-25 10:05:00,
2013-03-25 04:10:00,41.4,4.2,30.03,North,0,2.2,6.5,21,0.00,,,0.00,WUHU216HW,2013-03-25 10:10:00,
2013-03-25 04:15:00,41.4,4.2,30.03,North,0,1.6,4.5,21,0.00,,,0.00,WUHU216HW,2013-03-25 10:15:00,
2013-03-25 04:20:00,41.4,4.2,30.03,North,0,1.1,4.5,21,0.00,,,0.00,WUHU216HW,2013-03-25 10:20:00,
2013-03-25 04:25:00,41.2,4.2,30.03,North,0,1.8,3.4,21,0.00,,,0.00,WUHU216HW,2013-03-25 10:25:00,
2013-03-25 04:30:00,41.2,4.2,30.03,North,0,1.8,3.4,21,0.00,,,0.00,WUHU216HW,2013-03-25 10:30:00,
2013-03-25 04:35:00,40.9,3.8,30.04,North,0,1.8,3.4,21,0.00,,,0.00,WUHU216HW,2013-03-25 10:35:00,
2013-03-25 04:40:00,40.7,3.6,30.04,North,0,2.0,3.4,21,0.00,,,0.00,WUHU216HW,2013-03-25 10:40:00,
2013-03-25 04:45:00,40.5,3.5,30.04,NNE,23,2.0,2.9,21,0.00,,,0.00,WUHU216HW,2013-03-25 10:45:00,
2013-03-25 04:50:00,40.3,4.2,30.04,NNW,338,1.3,3.1,22,0.00,,,0.00,WUHU216HW,2013-03-25 10:50:00,
2013-03-25 04:55:00,40.3,4.2,30.05,North,0,0.9,3.1,22,0.00,,,0.00,WUHU216HW,2013-03-25 10:55:00,
2013-03-25 05:00:00,40.3,4.2,30.05,East,90,1.1,2.0,22,0.00,,,0.00,WUHU216HW,2013-03-25 11:00:00,
2013-03-25 05:05:00,40.3,4.2,30.05,North,0,0.7,2.0,22,0.00,,,0.00,WUHU216HW,2013-03-25 11:05:00,
2013-03-25 05:10:00,40.0,3.0,30.06,NW,315,0.4,1.8,21,0.00,,,0.00,WUHU216HW,2013-03-25 11:10:00,
2013-03-25 05:15:00,40.0,3.0,30.06,NNW,338,0.0,1.1,21,0.00,,,0.00,WUHU216HW,2013-03-25 11:15:00,
2013-03-25 05:20:00,39.8,2.8,30.06,NNW,338,0.0,0.9,21,0.00,,,0.00,WUHU216HW,2013-03-25 11:20:00,
2013-03-25 05:25:00,39.4,3.4,30.06,NW,315,1.3,1.3,22,0.00,,,0.00,WUHU216HW,2013-03-25 11:25:00,
2013-03-25 05:30:00,39.6,3.6,30.06,NW,315,0.2,1.8,22,0.00,,,0.00,WUHU216HW,2013-03-25 11:30:00,
2013-03-25 05:35:00,40.0,3.9,30.06,NNW,338,0.4,1.8,22,0.00,,,0.00,WUHU216HW,2013-03-25 11:35:00,
2013-03-25 05:40:00,39.8,3.7,30.06,SE,135,0.0,1.6,22,0.00,,,0.00,WUHU216HW,2013-03-25 11:40:00,
2013-03-25 05:45:00,39.6,2.7,30.06,NE,45,0.0,0.9,21,0.00,,,0.00,WUHU216HW,2013-03-25 11:45:00,
2013-03-25 05:50:00,39.2,3.2,30.06,NE,45,1.6,1.6,22,0.00,,,0.00,WUHU216HW,2013-03-25 11:50:00,
2013-03-25 05:55:00,39.4,4.3,30.06,East,90,2.2,2.2,23,0.00,,,0.00,WUHU216HW,2013-03-25 11:55:00,
2013-03-25 06:00:00,39.8,4.6,30.06,East,90,2.0,2.2,23,0.00,,,0.00,WUHU216HW,2013-03-25 12:00:00,
2013-03-25 06:05:00,40.0,4.8,30.06,East,90,1.8,2.5,23,0.00,,,0.00,WUHU216HW,2013-03-25 12:05:00,
2013-03-25 06:10:00,40.0,4.8,30.07,ENE,68,1.8,2.5,23,0.00,,,0.00,WUHU216HW,2013-03-25 12:10:00,
2013-03-25 06:15:00,40.0,3.9,30.07,ENE,68,0.2,2.0,22,0.00,,,0.00,WUHU216HW,2013-03-25 12:15:00,
2013-03-25 06:20:00,39.8,3.7,30.07,ENE,68,0.4,1.8,22,0.00,,,0.00,WUHU216HW,2013-03-25 12:20:00,
2013-03-25 06:25:00,39.6,3.6,30.08,East,90,0.2,1.8,22,0.00,,,0.00,WUHU216HW,2013-03-25 12:25:00,
2013-03-25 06:30:00,39.4,3.4,30.08,East,90,0.0,1.1,22,0.00,,,0.00,WUHU216HW,2013-03-25 12:30:00,
2013-03-25 06:35:00,39.2,3.2,30.08,East,90,0.0,0.4,22,0.00,,,0.00,WUHU216HW,2013-03-25 12:35:00,
2013-03-25 06:40:00,39.1,3.1,30.08,East,90,0.0,0.4,22,0.00,,,0.00,WUHU216HW,2013-03-25 12:40:00,
2013-03-25 06:45:00,38.7,2.8,30.09,East,90,0.0,0.4,22,0.00,,,0.00,WUHU216HW,2013-03-25 12:45:00,
2013-03-25 06:50:00,38.5,2.6,30.09,ESE,113,0.0,0.7,22,0.00,,,0.00,WUHU216HW,2013-03-25 12:50:00,
2013-03-25 06:55:00,38.2,3.2,30.09,SE,135,0.0,0.7,23,0.00,,,0.00,WUHU216HW,2013-03-25 12:55:00,
2013-03-25 07:00:00,38.0,3.1,30.09,SE,135,0.0,0.7,23,0.00,,,0.00,WUHU216HW,2013-03-25 13:00:00,
2013-03-25 07:05:00,38.0,4.0,30.10,North,0,1.1,1.3,24,0.00,,,0.00,WUHU216HW,2013-03-25 13:05:00,
2013-03-25 07:10:00,38.0,3.1,30.10,NNE,23,1.1,1.3,23,0.00,,,0.00,WUHU216HW,2013-03-25 13:10:00,
2013-03-25 07:15:00,37.8,3.9,30.10,North,0,0.0,1.3,24,0.00,,,0.00,WUHU216HW,2013-03-25 13:15:00,
2013-03-25 07:20:00,37.6,3.7,30.11,NNE,23,0.9,1.6,24,0.00,,,0.00,WUHU216HW,2013-03-25 13:20:00,
2013-03-25 07:25:00,37.4,4.4,30.11,ENE,68,1.8,2.0,25,0.00,,,0.00,WUHU216HW,2013-03-25 13:25:00,
2013-03-25 07:30:00,37.4,3.5,30.12,North,0,0.7,2.0,24,0.00,,,0.00,WUHU216HW,2013-03-25 13:30:00,
2013-03-25 07:35:00,38.3,4.3,30.12,NNE,23,0.4,2.0,24,0.00,,,0.00,WUHU216HW,2013-03-25 13:35:00,
2013-03-25 07:40:00,39.2,5.0,30.12,NNE,23,1.1,1.6,24,0.00,,,0.00,WUHU216HW,2013-03-25 13:40:00,
2013-03-25 07:45:00,39.4,5.2,30.13,North,0,2.5,2.7,24,0.00,,,0.00,WUHU216HW,2013-03-25 13:45:00,
2013-03-25 07:50:00,39.6,4.5,30.13,NE,45,4.0,4.0,23,0.00,,,0.00,WUHU216HW,2013-03-25 13:50:00,
2013-03-25 07:55:00,40.0,4.8,30.13,North,0,1.1,6.0,23,0.00,,,0.00,WUHU216HW,2013-03-25 13:55:00,
2013-03-25 08:00:00,40.0,4.8,30.14,NNE,23,0.9,6.0,23,0.00,,,0.00,WUHU216HW,2013-03-25 14:00:00,
2013-03-25 08:05:00,40.1,5.0,30.14,ENE,68,1.1,4.0,23,0.00,,,0.00,WUHU216HW,2013-03-25 14:05:00,
2013-03-25 08:10:00,40.3,5.1,30.15,ENE,68,0.7,3.1,23,0.00,,,0.00,WUHU216HW,2013-03-25 14:10:00,
2013-03-25 08:15:00,40.7,4.5,30.15,NNW,338,0.4,1.8,22,0.00,,,0.00,WUHU216HW,2013-03-25 14:15:00,
2013-03-25 08:20:00,40.9,4.7,30.15,NW,315,0.0,1.8,22,0.00,,,0.00,WUHU216HW,2013-03-25 14:20:00,
2013-03-25 08:25:00,41.4,5.1,30.16,South,180,1.1,2.2,22,0.00,,,0.00,WUHU216HW,2013-03-25 14:25:00,
2013-03-25 08:30:00,42.1,5.8,30.16,West,270,0.9,2.2,22,0.00,,,0.00,WUHU216HW,2013-03-25 14:30:00,
2013-03-25 08:35:00,42.5,5.1,30.16,WSW,248,1.8,4.0,21,0.00,,,0.00,WUHU216HW,2013-03-25 14:35:00,
2013-03-25 08:40:00,42.3,5.0,30.16,WNW,293,1.8,4.3,21,0.00,,,0.00,WUHU216HW,2013-03-25 14:40:00,
2013-03-25 08:45:00,42.3,5.9,30.16,WSW,248,3.6,6.9,22,0.00,,,0.00,WUHU216HW,2013-03-25 14:45:00,
2013-03-25 08:50:00,42.5,6.0,30.16,WNW,293,5.4,6.9,22,0.00,,,0.00,WUHU216HW,2013-03-25 14:50:00,
2013-03-25 08:55:00,42.7,6.1,30.16,NNW,338,2.5,5.4,22,0.00,,,0.00,WUHU216HW,2013-03-25 14:55:00,
2013-03-25 09:00:00,43.0,5.6,30.16,North,0,1.8,4.7,21,0.00,,,0.00,WUHU216HW,2013-03-25 15:00:00,
2013-03-25 09:05:00,43.4,5.9,30.16,NNW,338,2.2,4.7,21,0.00,,,0.00,WUHU216HW,2013-03-25 15:05:00,
2013-03-25 09:10:00,43.6,6.0,30.16,North,0,0.4,3.4,21,0.00,,,0.00,WUHU216HW,2013-03-25 15:10:00,
2013-03-25 09:15:00,44.3,6.7,30.16,WNW,293,0.7,4.0,21,0.00,,,0.00,WUHU216HW,2013-03-25 15:15:00,
2013-03-25 09:20:00,44.6,6.1,30.16,North,0,2.0,4.0,20,0.00,,,0.00,WUHU216HW,2013-03-25 15:20:00,
2013-03-25 09:25:00,45.2,6.6,30.17,North,0,1.1,2.5,20,0.00,,,0.00,WUHU216HW,2013-03-25 15:25:00,
2013-03-25 09:30:00,45.7,7.0,30.17,ENE,68,1.3,2.9,20,0.00,,,0.00,WUHU216HW,2013-03-25 15:30:00,
2013-03-25 09:35:00,46.1,5.8,30.17,North,0,3.4,3.8,19,0.00,,,0.00,WUHU216HW,2013-03-25 15:35:00,
2013-03-25 09:40:00,46.4,6.1,30.17,ESE,113,0.2,3.8,19,0.00,,,0.00,WUHU216HW,2013-03-25 15:40:00,
2013-03-25 09:45:00,47.2,5.2,30.17,WSW,248,1.1,3.4,18,0.00,,,0.00,WUHU216HW,2013-03-25 15:45:00,
2013-03-25 09:50:00,47.5,5.5,30.17,SE,135,2.0,2.9,18,0.00,,,0.00,WUHU216HW,2013-03-25 15:50:00,
2013-03-25 09:55:00,48.2,6.0,30.17,ESE,113,2.5,4.0,18,0.00,,,0.00,WUHU216HW,2013-03-25 15:55:00,
2013-03-25 10:00:00,48.2,4.6,30.17,WSW,248,0.7,4.0,17,0.00,,,0.00,WUHU216HW,2013-03-25 16:00:00,
2013-03-25 10:05:00,47.9,5.8,30.17,North,0,1.1,2.5,18,0.00,,,0.00,WUHU216HW,2013-03-25 16:05:00,
2013-03-25 10:10:00,48.1,6.0,30.17,NNE,23,1.1,2.7,18,0.00,,,0.00,WUHU216HW,2013-03-25 16:10:00,
2013-03-25 10:15:00,48.6,6.4,30.17,ESE,113,0.7,3.8,18,0.00,,,0.00,WUHU216HW,2013-03-25 16:15:00,
2013-03-25 10:20:00,49.3,5.5,30.17,NW,315,3.4,3.8,17,0.00,,,0.00,WUHU216HW,2013-03-25 16:20:00,
2013-03-25 10:25:00,49.3,5.5,30.17,ESE,113,3.4,5.1,17,0.00,,,0.00,WUHU216HW,2013-03-25 16:25:00,
2013-03-25 10:30:00,50.0,6.1,30.17,ESE,113,5.4,5.4,17,0.00,,,0.00,WUHU216HW,2013-03-25 16:30:00,
2013-03-25 10:35:00,50.0,6.1,30.18,SE,135,4.3,6.7,17,0.00,,,0.00,WUHU216HW,2013-03-25 16:35:00,
2013-03-25 10:40:00,50.4,6.4,30.17,East,90,3.4,6.7,17,0.00,,,0.00,WUHU216HW,2013-03-25 16:40:00,
2013-03-25 10:45:00,50.8,6.7,30.17,ESE,113,3.8,5.4,17,0.00,,,0.00,WUHU216HW,2013-03-25 16:45:00,
2013-03-25 10:50:00,50.8,6.7,30.17,East,90,4.0,5.4,17,0.00,,,0.00,WUHU216HW,2013-03-25 16:50:00,
2013-03-25 10:55:00,51.1,6.9,30.17,East,90,1.8,5.4,17,0.00,,,0.00,WUHU216HW,2013-03-25 16:55:00,
2013-03-25 11:00:00,51.5,7.2,30.17,ENE,68,3.4,4.3,17,0.00,,,0.00,WUHU216HW,2013-03-25 17:00:00,
2013-03-25 11:05:00,51.8,7.6,30.17,ESE,113,4.9,5.8,17,0.00,,,0.00,WUHU216HW,2013-03-25 17:05:00,
2013-03-25 11:10:00,52.2,7.8,30.17,East,90,2.5,5.8,17,0.00,,,0.00,WUHU216HW,2013-03-25 17:10:00,
2013-03-25 11:15:00,52.9,6.8,30.17,SE,135,2.9,4.9,16,0.00,,,0.00,WUHU216HW,2013-03-25 17:15:00,
2013-03-25 11:20:00,52.9,6.8,30.17,SE,135,2.7,5.4,16,0.00,,,0.00,WUHU216HW,2013-03-25 17:20:00,
2013-03-25 11:25:00,53.5,7.3,30.17,SE,135,1.3,5.4,16,0.00,,,0.00,WUHU216HW,2013-03-25 17:25:00,
2013-03-25 11:30:00,53.6,7.5,30.16,East,90,5.4,6.0,16,0.00,,,0.00,WUHU216HW,2013-03-25 17:30:00,
2013-03-25 11:35:00,54.4,6.6,30.16,ESE,113,4.5,6.0,15,0.00,,,0.00,WUHU216HW,2013-03-25 17:35:00,
2013-03-25 11:40:00,54.4,6.6,30.16,SE,135,3.4,5.1,15,0.00,,,0.00,WUHU216HW,2013-03-25 17:40:00,
2013-03-25 11:45:00,55.1,8.7,30.16,East,90,2.0,4.9,16,0.00,,,0.00,WUHU216HW,2013-03-25 17:45:00,
2013-03-25 11:50:00,55.6,9.2,30.16,SSW,203,1.1,5.4,16,0.00,,,0.00,WUHU216HW,2013-03-25 17:50:00,
2013-03-25 11:55:00,56.2,9.5,30.16,ESE,113,2.0,5.4,16,0.00,,,0.00,WUHU216HW,2013-03-25 17:55:00,
2013-03-25 12:00:00,55.8,9.3,30.16,ESE,113,1.1,4.9,16,0.00,,,0.00,WUHU216HW,2013-03-25 18:00:00,
2013-03-25 12:05:00,56.2,9.5,30.16,ESE,113,4.0,4.9,16,0.00,,,0.00,WUHU216HW,2013-03-25 18:05:00,
2013-03-25 12:10:00,56.3,8.1,30.16,SSE,158,3.4,4.9,15,0.00,,,0.00,WUHU216HW,2013-03-25 18:10:00,
2013-03-25 12:15:00,56.3,8.1,30.16,NE,45,4.0,4.9,15,0.00,,,0.00,WUHU216HW,2013-03-25 18:15:00,
2013-03-25 12:20:00,56.3,8.1,30.16,South,180,2.7,6.7,15,0.00,,,0.00,WUHU216HW,2013-03-25 18:20:00,
2013-03-25 12:25:00,56.5,8.3,30.15,East,90,4.5,6.7,15,0.00,,,0.00,WUHU216HW,2013-03-25 18:25:00,
2013-03-25 12:30:00,57.2,8.8,30.15,ESE,113,2.0,4.5,15,0.00,,,0.00,WUHU216HW,2013-03-25 18:30:00,
2013-03-25 12:35:00,57.4,9.0,30.15,ESE,113,2.9,5.8,15,0.00,,,0.00,WUHU216HW,2013-03-25 18:35:00,
2013-03-25 12:40:00,57.4,9.0,30.15,ESE,113,4.0,5.8,15,0.00,,,0.00,WUHU216HW,2013-03-25 18:40:00,
2013-03-25 12:45:00,57.6,9.1,30.15,ESE,113,2.5,4.9,15,0.00,,,0.00,WUHU216HW,2013-03-25 18:45:00,
2013-03-25 12:50:00,58.0,9.4,30.15,NNE,23,2.9,4.9,15,0.00,,,0.00,WUHU216HW,2013-03-25 18:50:00,
2013-03-25 12:55:00,58.5,9.8,30.15,ESE,113,0.0,4.5,15,0.00,,,0.00,WUHU216HW,2013-03-25 18:55:00,
2013-03-25 13:00:00,58.9,8.6,30.15,NNE,23,0.9,4.5,14,0.00,,,0.00,WUHU216HW,2013-03-25 19:00:00,
2013-03-25 13:05:00,59.6,10.7,30.14,SSW,203,2.7,5.1,15,0.00,,,0.00,WUHU216HW,2013-03-25 19:05:00,
2013-03-25 13:12:00,59.8,7.7,30.14,East,90,4.0,5.1,13,0.00,,,0.00,WUHU216HW,2013-03-25 19:12:00,
2013-03-25 13:17:00,59.8,7.7,30.14,ESE,113,2.7,4.0,13,0.00,,,0.00,WUHU216HW,2013-03-25 19:17:00,
2013-03-25 13:22:00,58.7,6.8,30.14,East,90,3.6,5.8,13,0.00,,,0.00,WUHU216HW,2013-03-25 19:22:00,
2013-03-25 13:27:00,58.7,6.8,30.13,SE,135,2.5,5.4,13,0.00,,,0.00,WUHU216HW,2013-03-25 19:27:00,
2013-03-25 13:32:00,59.8,9.4,30.13,SW,225,1.1,4.7,14,0.00,,,0.00,WUHU216HW,2013-03-25 19:32:00,
2013-03-25 13:37:00,60.3,8.2,30.13,ESE,113,2.5,4.3,13,0.00,,,0.00,WUHU216HW,2013-03-25 19:37:00,
2013-03-25 13:42:00,59.9,7.9,30.13,ENE,68,1.8,6.0,13,0.00,,,0.00,WUHU216HW,2013-03-25 19:42:00,
2013-03-25 13:47:00,60.5,8.4,30.13,SE,135,2.9,6.0,13,0.00,,,0.00,WUHU216HW,2013-03-25 19:47:00,
2013-03-25 13:52:00,61.0,8.8,30.12,ENE,68,4.0,6.5,13,0.00,,,0.00,WUHU216HW,2013-03-25 19:52:00,
2013-03-25 13:57:00,60.7,8.6,30.12,ESE,113,4.7,6.5,13,0.00,,,0.00,WUHU216HW,2013-03-25 19:57:00,
2013-03-25 14:02:00,60.3,8.2,30.12,SSE,158,2.5,5.4,13,0.00,,,0.00,WUHU216HW,2013-03-25 20:02:00,
2013-03-25 14:07:00,60.8,8.6,30.12,North,0,0.7,4.7,13,0.00,,,0.00,WUHU216HW,2013-03-25 20:07:00,
2013-03-25 14:12:00,61.9,9.6,30.12,NNE,23,2.5,3.6,13,0.00,,,0.00,WUHU216HW,2013-03-25 20:12:00,
2013-03-25 14:17:00,61.7,7.8,30.12,North,0,2.5,4.7,12,0.00,,,0.00,WUHU216HW,2013-03-25 20:17:00,
2013-03-25 14:22:00,61.6,7.7,30.12,NE,45,1.8,6.3,12,0.00,,,0.00,WUHU216HW,2013-03-25 20:22:00,
2013-03-25 14:27:00,61.7,7.8,30.11,SSW,203,2.5,6.9,12,0.00,,,0.00,WUHU216HW,2013-03-25 20:27:00,
2013-03-25 14:32:00,61.7,7.8,30.11,ESE,113,2.7,6.9,12,0.00,,,0.00,WUHU216HW,2013-03-25 20:32:00,
2013-03-25 14:37:00,61.4,7.6,30.11,ESE,113,1.1,4.7,12,0.00,,,0.00,WUHU216HW,2013-03-25 20:37:00,
2013-03-25 14:42:00,61.4,7.6,30.10,NNW,338,2.2,4.9,12,0.00,,,0.00,WUHU216HW,2013-03-25 20:42:00,
2013-03-25 14:47:00,61.2,7.4,30.10,SSE,158,2.0,4.9,12,0.00,,,0.00,WUHU216HW,2013-03-25 20:47:00,
2013-03-25 14:52:00,61.9,7.9,30.10,SE,135,3.8,6.7,12,0.00,,,0.00,WUHU216HW,2013-03-25 20:52:00,
2013-03-25 14:57:00,62.3,8.3,30.10,West,270,1.1,6.7,12,0.00,,,0.00,WUHU216HW,2013-03-25 20:57:00,
2013-03-25 15:02:00,62.5,8.4,30.09,SE,135,1.6,4.9,12,0.00,,,0.00,WUHU216HW,2013-03-25 21:02:00,
2013-03-25 15:07:00,62.3,8.3,30.09,ESE,113,3.8,7.4,12,0.00,,,0.00,WUHU216HW,2013-03-25 21:07:00,
2013-03-25 15:12:00,61.9,7.9,30.09,SE,135,2.5,7.4,12,0.00,,,0.00,WUHU216HW,2013-03-25 21:12:00,
2013-03-25 15:17:00,62.3,8.3,30.09,ESE,113,1.6,4.7,12,0.00,,,0.00,WUHU216HW,2013-03-25 21:17:00,
2013-03-25 15:22:00,62.6,8.6,30.09,SE,135,1.6,3.6,12,0.00,,,0.00,WUHU216HW,2013-03-25 21:22:00,
2013-03-25 15:27:00,63.0,8.8,30.09,ENE,68,3.4,6.9,12,0.00,,,0.00,WUHU216HW,2013-03-25 21:27:00,
2013-03-25 15:32:00,63.2,8.9,30.09,SSE,158,3.8,6.9,12,0.00,,,0.00,WUHU216HW,2013-03-25 21:32:00,
2013-03-25 15:37:00,63.0,8.8,30.08,SE,135,2.5,6.0,12,0.00,,,0.00,WUHU216HW,2013-03-25 21:37:00,
2013-03-25 15:42:00,63.2,8.9,30.08,ESE,113,4.0,6.3,12,0.00,,,0.00,WUHU216HW,2013-03-25 21:42:00,
2013-03-25 15:47:00,63.0,8.8,30.08,SSW,203,3.1,6.3,12,0.00,,,0.00,WUHU216HW,2013-03-25 21:47:00,
2013-03-25 15:52:00,63.4,9.1,30.08,ESE,113,2.5,6.9,12,0.00,,,0.00,WUHU216HW,2013-03-25 21:52:00,
2013-03-25 15:57:00,63.5,9.2,30.07,SE,135,0.9,6.9,12,0.00,,,0.00,WUHU216HW,2013-03-25 21:57:00,
2013-03-25 16:02:00,63.0,7.2,30.07,East,90,7.6,7.6,11,0.00,,,0.00,WUHU216HW,2013-03-25 22:02:00,
2013-03-25 16:07:00,62.8,8.6,30.07,SSE,158,1.8,7.6,12,0.00,,,0.00,WUHU216HW,2013-03-25 22:07:00,
2013-03-25 16:12:00,63.0,8.8,30.07,SSE,158,2.9,7.6,12,0.00,,,0.00,WUHU216HW,2013-03-25 22:12:00,
2013-03-25 16:17:00,63.0,8.8,30.07,SSE,158,3.6,4.7,12,0.00,,,0.00,WUHU216HW,2013-03-25 22:17:00,
2013-03-25 16:22:00,63.2,8.9,30.07,ENE,68,3.1,4.7,12,0.00,,,0.00,WUHU216HW,2013-03-25 22:22:00,
2013-03-25 16:27:00,63.5,9.2,30.07,WSW,248,0.4,4.5,12,0.00,,,0.00,WUHU216HW,2013-03-25 22:27:00,
2013-03-25 16:32:00,63.4,7.5,30.07,ESE,113,4.7,4.7,11,0.00,,,0.00,WUHU216HW,2013-03-25 22:32:00,
2013-03-25 16:37:00,62.8,8.6,30.07,East,90,0.7,6.3,12,0.00,,,0.00,WUHU216HW,2013-03-25 22:37:00,
2013-03-25 16:43:00,63.2,8.9,30.07,SE,135,0.0,6.3,12,0.00,,,0.00,WUHU216HW,2013-03-25 22:43:00,
2013-03-25 16:48:00,63.7,9.3,30.06,SSE,158,1.6,3.4,12,0.00,,,0.00,WUHU216HW,2013-03-25 22:48:00,
2013-03-25 16:53:00,63.7,7.8,30.06,NE,45,2.9,3.1,11,0.00,,,0.00,WUHU216HW,2013-03-25 22:53:00,
2013-03-25 16:58:00,63.2,7.4,30.07,NE,45,6.3,6.3,11,0.00,,,0.00,WUHU216HW,2013-03-25 22:58:00,
2013-03-25 17:03:00,63.0,8.8,30.06,ESE,113,2.9,6.3,12,0.00,,,0.00,WUHU216HW,2013-03-25 23:03:00,
2013-03-25 17:08:00,63.0,7.2,30.06,ENE,68,1.8,6.3,11,0.00,,,0.00,WUHU216HW,2013-03-25 23:08:00,
2013-03-25 17:13:00,63.0,8.8,30.06,ESE,113,4.5,4.7,12,0.00,,,0.00,WUHU216HW,2013-03-25 23:13:00,
2013-03-25 17:18:00,62.8,8.6,30.06,SE,135,3.4,4.9,12,0.00,,,0.00,WUHU216HW,2013-03-25 23:18:00,
2013-03-25 17:23:00,62.8,8.6,30.06,ESE,113,1.6,4.9,12,0.00,,,0.00,WUHU216HW,2013-03-25 23:23:00,
2013-03-25 17:28:00,62.8,8.6,30.06,East,90,0.9,3.4,12,0.00,,,0.00,WUHU216HW,2013-03-25 23:28:00,
2013-03-25 17:33:00,62.6,8.6,30.06,ESE,113,2.5,3.6,12,0.00,,,0.00,WUHU216HW,2013-03-25 23:33:00,
2013-03-25 17:38:00,62.5,8.4,30.06,SSE,158,3.8,4.7,12,0.00,,,0.00,WUHU216HW,2013-03-25 23:38:00,
2013-03-25 17:43:00,62.3,8.3,30.06,ESE,113,4.0,5.1,12,0.00,,,0.00,WUHU216HW,2013-03-25 23:43:00,
2013-03-25 17:48:00,62.3,8.3,30.06,SE,135,1.8,5.1,12,0.00,,,0.00,WUHU216HW,2013-03-25 23:48:00,
2013-03-25 17:53:00,62.3,8.3,30.06,East,90,1.8,4.0,12,0.00,,,0.00,WUHU216HW,2013-03-25 23:53:00,
2013-03-25 17:58:00,62.1,8.1,30.06,ESE,113,1.6,4.0,12,0.00,,,0.00,WUHU216HW,2013-03-25 23:58:00,
2013-03-25 18:03:00,61.9,7.9,30.06,ESE,113,1.1,3.4,12,0.00,,,0.00,WUHU216HW,2013-03-26 00:03:00,
2013-03-25 18:08:00,61.9,7.9,30.06,NE,45,3.8,3.8,12,0.00,,,0.00,WUHU216HW,2013-03-26 00:08:00,
2013-03-25 18:13:00,61.6,7.7,30.06,SSE,158,1.1,5.4,12,0.00,,,0.00,WUHU216HW,2013-03-26 00:13:00,
2013-03-25 18:18:00,61.2,7.4,30.06,East,90,2.9,5.4,12,0.00,,,0.00,WUHU216HW,2013-03-26 00:18:00,
2013-03-25 18:23:00,61.0,7.2,30.06,ESE,113,2.5,5.1,12,0.00,,,0.00,WUHU216HW,2013-03-26 00:23:00,
2013-03-25 18:28:00,61.2,7.4,30.06,ESE,113,1.1,5.1,12,0.00,,,0.00,WUHU216HW,2013-03-26 00:28:00,
2013-03-25 18:33:00,61.2,7.4,30.06,SE,135,4.0,4.0,12,0.00,,,0.00,WUHU216HW,2013-03-26 00:33:00,
2013-03-25 18:38:00,60.8,7.1,30.06,ESE,113,1.8,4.0,12,0.00,,,0.00,WUHU216HW,2013-03-26 00:38:00,
2013-03-25 18:42:00,60.5,8.4,30.06,ESE,113,3.6,7.4,13,0.00,,,0.00,WUHU216HW,2013-03-26 00:42:00,
2013-03-25 18:47:00,60.3,8.2,30.07,ESE,113,3.4,7.4,13,0.00,,,0.00,WUHU216HW,2013-03-26 00:47:00,
2013-03-25 18:53:00,60.1,8.1,30.07,ESE,113,3.1,4.9,13,0.00,,,0.00,WUHU216HW,2013-03-26 00:53:00,
2013-03-25 18:58:00,59.8,7.7,30.07,ESE,113,3.4,4.9,13,0.00,,,0.00,WUHU216HW,2013-03-26 00:58:00,
2013-03-25 19:03:00,59.4,7.5,30.07,ESE,113,3.1,4.0,13,0.00,,,0.00,WUHU216HW,2013-03-26 01:03:00,
2013-03-25 19:08:00,58.9,7.0,30.07,ESE,113,3.4,5.1,13,0.00,,,0.00,WUHU216HW,2013-03-26 01:08:00,
2013-03-25 19:13:00,58.7,6.8,30.07,SSW,203,2.0,5.1,13,0.00,,,0.00,WUHU216HW,2013-03-26 01:13:00,
2013-03-25 19:18:00,58.3,6.6,30.07,ESE,113,0.9,5.4,13,0.00,,,0.00,WUHU216HW,2013-03-26 01:18:00,
2013-03-25 19:23:00,58.1,8.0,30.07,East,90,2.5,5.4,14,0.00,,,0.00,WUHU216HW,2013-03-26 01:23:00,
2013-03-25 19:28:00,58.0,7.8,30.07,East,90,2.0,4.5,14,0.00,,,0.00,WUHU216HW,2013-03-26 01:28:00,
2013-03-25 19:33:00,57.6,9.1,30.07,SE,135,4.0,4.0,15,0.00,,,0.00,WUHU216HW,2013-03-26 01:33:00,
2013-03-25 19:38:00,57.2,8.8,30.08,ESE,113,1.8,5.4,15,0.00,,,0.00,WUHU216HW,2013-03-26 01:38:00,
2013-03-25 19:43:00,57.1,8.6,30.08,ESE,113,2.5,5.4,15,0.00,,,0.00,WUHU216HW,2013-03-26 01:43:00,
2013-03-25 19:48:00,56.7,8.4,30.08,ESE,113,3.4,4.5,15,0.00,,,0.00,WUHU216HW,2013-03-26 01:48:00,
2013-03-25 19:53:00,56.5,8.3,30.08,East,90,1.8,4.0,15,0.00,,,0.00,WUHU216HW,2013-03-26 01:53:00,
2013-03-25 19:58:00,56.2,8.0,30.08,SE,135,2.5,4.0,15,0.00,,,0.00,WUHU216HW,2013-03-26 01:58:00,
2013-03-25 20:03:00,55.8,7.7,30.09,ESE,113,2.0,3.6,15,0.00,,,0.00,WUHU216HW,2013-03-26 02:03:00,
2013-03-25 20:08:00,55.6,9.2,30.09,ESE,113,2.0,3.8,16,0.00,,,0.00,WUHU216HW,2013-03-26 02:08:00,
2013-03-25 20:13:00,55.3,8.8,30.09,ESE,113,2.5,4.3,16,0.00,,,0.00,WUHU216HW,2013-03-26 02:13:00,
2013-03-25 20:18:00,55.1,8.7,30.09,SE,135,3.4,4.5,16,0.00,,,0.00,WUHU216HW,2013-03-26 02:18:00,
2013-03-25 20:23:00,54.9,8.6,30.09,SE,135,2.5,5.4,16,0.00,,,0.00,WUHU216HW,2013-03-26 02:23:00,
2013-03-25 20:28:00,54.5,8.2,30.09,ESE,113,3.6,5.4,16,0.00,,,0.00,WUHU216HW,2013-03-26 02:28:00,
2013-03-25 20:33:00,54.4,8.1,30.10,SE,135,4.3,5.6,16,0.00,,,0.00,WUHU216HW,2013-03-26 02:33:00,
2013-03-25 20:38:00,54.0,7.7,30.10,ESE,113,3.6,5.8,16,0.00,,,0.00,WUHU216HW,2013-03-26 02:38:00,
2013-03-25 20:43:00,53.8,7.7,30.10,SE,135,3.4,5.8,16,0.00,,,0.00,WUHU216HW,2013-03-26 02:43:00,
2013-03-25 20:48:00,53.5,7.3,30.10,ESE,113,4.0,4.9,16,0.00,,,0.00,WUHU216HW,2013-03-26 02:48:00,
2013-03-25 20:53:00,53.3,8.6,30.10,ESE,113,3.6,6.3,17,0.00,,,0.00,WUHU216HW,2013-03-26 02:53:00,
2013-03-25 20:58:00,52.9,8.4,30.10,East,90,3.4,6.3,17,0.00,,,0.00,WUHU216HW,2013-03-26 02:58:00,
2013-03-25 21:03:00,52.7,8.3,30.11,East,90,2.5,6.3,17,0.00,,,0.00,WUHU216HW,2013-03-26 03:03:00,
2013-03-25 21:08:00,52.4,7.9,30.11,East,90,2.5,6.3,17,0.00,,,0.00,WUHU216HW,2013-03-26 03:08:00,
2013-03-25 21:13:00,52.2,7.8,30.11,ESE,113,2.5,6.3,17,0.00,,,0.00,WUHU216HW,2013-03-26 03:13:00,
2013-03-25 21:18:00,51.8,7.6,30.11,SE,135,2.5,5.8,17,0.00,,,0.00,WUHU216HW,2013-03-26 03:18:00,
2013-03-25 21:23:00,51.7,7.4,30.12,East,90,1.1,4.7,17,0.00,,,0.00,WUHU216HW,2013-03-26 03:23:00,
2013-03-25 21:28:00,51.5,7.2,30.12,ENE,68,0.0,3.8,17,0.00,,,0.00,WUHU216HW,2013-03-26 03:28:00,
2013-03-25 21:33:00,51.1,8.5,30.12,WNW,293,2.2,2.2,18,0.00,,,0.00,WUHU216HW,2013-03-26 03:33:00,
2013-03-25 21:38:00,51.1,8.5,30.13,North,0,1.6,3.4,18,0.00,,,0.00,WUHU216HW,2013-03-26 03:38:00,
2013-03-25 21:43:00,50.9,8.3,30.13,NNW,338,2.9,3.4,18,0.00,,,0.00,WUHU216HW,2013-03-26 03:43:00,
2013-03-25 21:48:00,50.8,8.2,30.13,ESE,113,1.3,4.7,18,0.00,,,0.00,WUHU216HW,2013-03-26 03:48:00,
2013-03-25 21:53:00,50.6,8.0,30.13,ESE,113,2.5,4.7,18,0.00,,,0.00,WUHU216HW,2013-03-26 03:53:00,
2013-03-25 21:58:00,50.4,7.9,30.14,South,180,0.4,3.4,18,0.00,,,0.00,WUHU216HW,2013-03-26 03:58:00,
2013-03-25 22:00:00,50.2,7.7,30.14,SSE,158,1.3,3.4,18,0.00,,,0.00,WUHU216HW,2013-03-26 04:00:00,
2013-03-25 22:05:00,49.9,7.5,30.14,East,90,2.9,4.3,18,0.00,,,0.00,WUHU216HW,2013-03-26 04:05:00,
2013-03-25 22:10:00,49.7,7.3,30.14,ESE,113,1.1,4.3,18,0.00,,,0.00,WUHU216HW,2013-03-26 04:10:00,
2013-03-25 22:15:00,49.5,7.1,30.15,SE,135,1.8,3.6,18,0.00,,,0.00,WUHU216HW,2013-03-26 04:15:00,
2013-03-25 22:20:00,49.3,10.0,30.15,ESE,113,1.6,3.6,20,0.00,,,0.00,WUHU216HW,2013-03-26 04:20:00,
2013-03-25 22:25:00,49.1,9.8,30.15,SE,135,1.3,4.5,20,0.00,,,0.00,WUHU216HW,2013-03-26 04:25:00,
2013-03-25 22:30:00,49.0,9.6,30.15,SSE,158,4.0,5.4,20,0.00,,,0.00,WUHU216HW,2013-03-26 04:30:00,
2013-03-25 22:35:00,48.8,9.5,30.16,ESE,113,5.4,5.4,20,0.00,,,0.00,WUHU216HW,2013-03-26 04:35:00,
2013-03-25 22:40:00,48.6,10.3,30.16,SE,135,4.0,5.4,21,0.00,,,0.00,WUHU216HW,2013-03-26 04:40:00,
2013-03-25 22:45:00,48.4,10.1,30.16,SSE,158,2.0,5.4,21,0.00,,,0.00,WUHU216HW,2013-03-26 04:45:00,
2013-03-25 22:50:00,48.2,9.9,30.16,ESE,113,3.6,5.1,21,0.00,,,0.00,WUHU216HW,2013-03-26 04:50:00,
2013-03-25 22:55:00,48.1,9.8,30.16,East,90,2.0,5.1,21,0.00,,,0.00,WUHU216HW,2013-03-26 04:55:00,
2013-03-25 23:00:00,47.9,9.6,30.17,SE,135,2.5,3.6,21,0.00,,,0.00,WUHU216HW,2013-03-26 05:00:00,
2013-03-25 23:05:00,47.7,9.6,30.17,SE,135,2.2,3.1,21,0.00,,,0.00,WUHU216HW,2013-03-26 05:05:00,
2013-03-25 23:10:00,47.3,9.2,30.16,SE,135,2.2,4.0,21,0.00,,,0.00,WUHU216HW,2013-03-26 05:10:00,
2013-03-25 23:15:00,47.2,9.1,30.17,SE,135,0.9,4.0,21,0.00,,,0.00,WUHU216HW,2013-03-26 05:15:00,
2013-03-25 23:20:00,47.0,8.9,30.17,ESE,113,0.4,2.0,21,0.00,,,0.00,WUHU216HW,2013-03-26 05:20:00,
2013-03-25 23:25:00,46.8,8.7,30.17,ESE,113,0.0,1.1,21,0.00,,,0.00,WUHU216HW,2013-03-26 05:25:00,
2013-03-25 23:30:00,46.4,8.5,30.16,ESE,113,0.9,1.3,21,0.00,,,0.00,WUHU216HW,2013-03-26 05:30:00,
2013-03-25 23:35:00,46.3,9.3,30.17,SE,135,0.7,1.8,22,0.00,,,0.00,WUHU216HW,2013-03-26 05:35:00,
2013-03-25 23:40:00,46.1,9.1,30.17,SSW,203,0.4,1.8,22,0.00,,,0.00,WUHU216HW,2013-03-26 05:40:00,
2013-03-25 23:45:00,45.9,8.9,30.17,SSW,203,0.0,1.8,22,0.00,,,0.00,WUHU216HW,2013-03-26 05:45:00,
2013-03-25 23:50:00,45.7,8.8,30.17,SE,135,0.0,1.1,22,0.00,,,0.00,WUHU216HW,2013-03-26 05:50:00,
2013-03-25 23:55:00,45.5,8.6,30.17,SW,225,0.0,1.1,22,0.00,,,0.00,WUHU216HW,2013-03-26 05:55:00,